1273536027693,89.8109
1273536087693,89.9254
1273536147693,90.4602
1273536207693,90.1727
1273536267693,90.3529
1273536327693,90.3273
1273536387693,89.9888
1273536447693,90.3608
1273536507693,90.5614
1273536567693,90.2240
1273536627693,90.1859
1273536687693,90.4430
1273536747693,90.0373
1273536807693,90.0914
1273536867693,89.7634
1273536927693,90.6579
1273536987693,89.8721
1273537047693,91.0293
1273537107693,90.4872
1273537167693,90.4177
1273537227693,90.2726
1273537287693,90.1740
1273537347693,90.7308
1273537407693,90.1865
1273537467693,90.5190
1273537527693,90.2092
1273537587693,90.1952
1273537647693,90.3330
1273537707693,90.8516
1273537767693,90.3020
1273537827693,90.0510
1273537887693,90.3628
1273537947693,90.6335
1273538007693,90.0404
1273538067693,89.7744
1273538127693,90.3239
1273538187693,90.2091
1273538247693,89.9699
1273538307693,90.1869
1273538367693,90.2900
1273538427693,90.5965
1273538487693,90.3891
1273538547693,89.8536
1273538607693,90.2531
1273538667693,90.1790
1273538727693,90.3996
1273538787693,90.6414
1273538847693,90.9060
1273538907693,90.3042
1273538967693,90.4454
1273539027693,90.2892
1273539087693,90.2298
1273539147693,90.1941
1273539207693,90.1394
1273539267693,90.0204
1273539327693,90.4344
1273539387693,89.7916
1273539447693,90.0682
1273539507693,90.2924
1273539567693,90.1416
1273539627703,90.2984
1273539687703,90.3694
1273539747703,90.4447
1273539807703,90.1493
1273539867703,90.1980
1273539927703,90.3124
1273539987703,90.8695
1273540047703,90.0840
1273540107703,90.1329
1273540167703,89.7343
1273540227703,90.6242
1273540287703,90.1786
1273540347703,90.5768
1273540407703,90.2484
1273540467703,90.2656
1273540527703,90.1242
1273540587703,90.2725
1273540647703,90.1534
1273540707703,90.6146
1273540767703,90.7193
1273540827703,89.8569
1273540887703,90.6666
1273540947703,90.2418
1273541007703,90.3856
1273541067703,89.8666
1273541127703,90.0308
1273541187703,90.3144
1273541247703,90.0620
1273541307703,90.8646
1273541367703,90.0379
1273541427703,90.3040
1273541487703,90.1409
1273541547703,89.9872
1273541607703,90.4211
1273541667703,89.8724
1273541727703,90.6234
1273541787703,89.7652
1273541847703,90.5829
1273541907703,89.8223
1273541967703,89.9573
1273542027703,90.4192
1273542087703,90.4921
1273542147703,90.3011
1273542207703,90.2484
1273542267703,89.8860
1273542327703,90.2173
1273542387703,89.9760
1273542447703,90.2099
1273542507703,90.1937
1273542567703,89.4723
1273542627703,90.1128
1273542687703,89.6964
1273542747703,89.7896
1273542807703,90.2833
1273542867703,89.6280
1273542927703,89.7998
1273542987703,90.1067
1273543047703,87.2593
1273543107703,89.9838
1273543167703,89.7166
1273543227713,90.0686
1273543287713,89.9383
1273543347713,89.3664
1273543407713,90.3961
1273543467713,90.4073
1273543527713,89.8760
1273543587713,90.5149
1273543647713,89.9667
1273543707713,90.1975
1273543767713,89.4529
1273543827713,89.9639
1273543887713,90.1213
1273543947713,89.7625
1273544007713,89.7205
1273544067713,90.2773
1273544127713,89.9911
1273544187713,90.2297
1273544247713,89.7498
1273544307713,90.3758
1273544367713,89.8179
1273544427713,90.2370
1273544487713,89.9063
1273544547713,89.9607
1273544607713,90.0417
1273544667713,90.0166
1273544727713,90.1127
1273544787713,90.4941
1273544847713,90.2122
1273544907713,90.3801
1273544967713,90.0261
1273545027713,90.2690
1273545087713,89.7541
1273545147713,89.5557
1273545207713,89.7519
1273545267713,90.4022
1273545327713,90.0131
1273545387713,90.0295
1273545447713,90.1141
1273545507713,90.2455
1273545567713,89.8331
1273545627713,90.5838
1273545687713,90.0024
1273545747713,90.1288
1273545807713,89.5571
1273545867713,89.8706
1273545927713,89.6922
1273545987713,89.9127
1273546047713,90.1054
1273546107713,89.4882
1273546167713,90.1919
1273546227713,89.6515
1273546287713,89.8489
1273546347713,89.5975
1273546407713,89.9441
1273546467713,89.5993
1273546527713,89.7551
1273546587713,89.7387
1273546647713,90.0128
1273546707713,89.9972
1273546767713,89.7827
1273546827722,89.9944
1273546887722,90.5600
1273546947722,89.6713
1273547007722,89.9007
1273547067722,90.3305
1273547127722,89.7687
1273547187722,89.6108
1273547247722,89.6429
1273547307722,90.0034
1273547367722,90.0137
1273547427722,89.3690
1273547487722,90.0622
1273547547722,90.5462
1273547607722,89.9799
1273547667722,89.8636
1273547727722,90.3857
1273547787722,89.6914
1273547847722,89.8451
1273547907722,90.3818
1273547967722,90.0981
1273548027722,90.1402
1273548087722,89.9974
1273548147722,89.9518
1273548207722,89.5856
1273548267722,89.4511
1273548327722,89.9660
1273548387722,90.4866
1273548447722,90.2009
1273548507722,90.0403
1273548567722,90.5917
1273548627722,90.1063
1273548687722,90.4763
1273548747722,89.9594
1273548807722,89.8583
1273548867722,89.9772
1273548927722,90.3051
1273548987722,90.1682
1273549047722,90.1171
1273549107722,90.3355
1273549167722,89.6945
1273549227722,90.2384
1273549287722,89.8402
1273549347722,90.0465
1273549407722,90.1428
1273549467722,90.2989
1273549527722,90.4039
1273549587722,90.2000
1273549647722,90.4745
1273549707722,90.5365
1273549767722,89.8121
1273549827722,90.0612
1273549887722,89.9447
1273549947722,89.6249
1273550007722,90.0488
1273550067722,89.9584
1273550127722,89.8587
1273550187722,90.0149
1273550247722,90.5500
1273550307722,89.8322
1273550367722,90.1626
1273550427731,90.4800
1273550487731,90.0816
1273550547731,89.8836
1273550607731,89.5776
1273550667731,90.0237
1273550727731,90.3106
1273550787731,90.2540
1273550847731,90.0938
1273550907731,90.1364
1273550967731,90.0866
1273551027731,90.1059
1273551087731,89.4789
1273551147731,89.7198
1273551207731,90.1105
1273551267731,89.9721
1273551327731,90.3000
1273551387731,90.0012
1273551447731,90.3665
1273551507731,89.7979
1273551567731,90.2441
1273551627731,89.8973
1273551687731,89.7712
1273551747731,89.7400
1273551807731,90.0705
1273551867731,90.3932
1273551927731,90.2823
1273551987731,89.6695
1273552047731,90.0685
1273552107731,90.3072
1273552167731,89.6480
1273552227731,89.7421
1273552287731,90.0754
1273552347731,90.2058
1273552407731,90.0994
1273552467731,90.1167
1273552527731,89.5217
1273552587731,89.9772
1273552647731,89.7581
1273552707731,89.7896
1273552767731,89.8833
1273552827731,90.0718
1273552887731,90.0182
1273552947731,90.0204
1273553007731,89.6108
1273553067731,89.1252
1273553127731,90.0163
1273553187731,89.2264
1273553247731,89.5121
1273553307731,89.8232
1273553367731,89.8119
1273553427731,89.7882
1273553487731,89.9760
1273553547731,89.6917
1273553607731,90.2104
1273553667731,89.9142
1273553727731,89.3155
1273553787731,89.6311
1273553847731,89.7098
1273553907731,90.0375
1273553967731,89.9453
1273554027740,89.6655
1273554087740,90.1462
1273554147740,89.7285
1273554207740,89.6877
1273554267740,89.6239
1273554327740,89.4720
1273554387740,89.7124
1273554447740,90.0923
1273554507740,90.0280
1273554567740,90.3405
1273554627740,89.8247
1273554687740,89.7810
1273554747740,89.6967
1273554807740,89.4310
1273554867740,89.6931
1273554927740,90.1247
1273554987740,89.6825
1273555047740,89.8316
1273555107740,89.5993
1273555167740,89.6075
1273555227740,89.8276
1273555287740,89.9047
1273555347740,89.7318
1273555407740,89.3875
1273555467740,89.5948
1273555527740,89.8560
1273555587740,89.9599
1273555647740,89.3083
1273555707740,89.8778
1273555767740,89.1875
1273555827740,89.9800
1273555887740,89.6800
1273555947740,89.9533
1273556007740,89.4580
1273556067740,89.4581
1273556127740,89.9532
1273556187740,90.1892
1273556247740,89.5247
1273556307740,89.8682
1273556367740,89.7333
1273556427740,90.0790
1273556487740,89.5810
1273556547740,90.1355
1273556607740,89.7860
1273556667740,90.2102
1273556727740,90.3641
1273556787740,90.1544
1273556847740,89.5660
1273556907740,89.9800
1273556967740,89.6051
1273557027740,89.9586
1273557087740,90.1043
1273557147740,89.6084
1273557207740,90.0331
1273557267740,89.7816
1273557327740,90.0776
1273557387740,90.1610
1273557447740,89.6567
1273557507740,89.6030
1273557567740,90.3890
1273557627749,89.8717
1273557687749,89.7201
1273557747749,89.8776
1273557807749,89.5594
1273557867749,89.4741
1273557927749,89.9093
1273557987749,89.6414
1273558047749,89.8599
1273558107749,89.4574
1273558167749,89.2124
1273558227749,89.5675
1273558287749,90.0263
1273558347749,89.6712
1273558407749,89.3548
1273558467749,89.1847
1273558527749,89.5417
1273558587749,89.6144
1273558647749,89.3977
1273558707749,89.2782
1273558767749,89.7506
1273558827749,89.7689
1273558887749,89.4538
1273558947749,89.4948
1273559007749,89.8369
1273559067749,89.4580
1273559127749,89.6790
1273559187749,90.0643
1273559247749,89.6954
1273559307749,90.2422
1273559367749,89.6831
1273559427749,89.2606
1273559487749,89.1120
1273559547749,89.6612
1273559607749,90.0056
1273559667749,89.5551
1273559727749,90.0846
1273559787749,89.6726
1273559847749,89.4811
1273559907749,89.6378
1273559967749,89.4404
1273560027749,89.2198
1273560087749,89.8473
1273560147749,89.9497
1273560207749,89.5869
1273560267749,90.4431
1273560327749,90.0078
1273560387749,89.3207
1273560447749,89.5660
1273560507749,89.9200
1273560567749,89.9445
1273560627749,89.6507
1273560687749,89.9253
1273560747749,89.9611
1273560807749,89.6210
1273560867749,89.7040
1273560927749,89.5047
1273560987749,89.4773
1273561047749,89.7541
1273561107749,89.4841
1273561167749,89.8420
1273561227758,89.6544
1273561287758,89.7829
1273561347758,89.5450
1273561407758,89.8437
1273561467758,90.1975
1273561527758,89.7777
1273561587758,89.9407
1273561647758,89.7878
1273561707758,89.5069
1273561767758,89.5220
1273561827758,89.7558
1273561887758,89.6560
1273561947758,89.9413
1273562007758,89.7933
1273562067758,89.4925
1273562127758,89.8701
1273562187758,89.5714
1273562247758,89.5652
1273562307758,89.6098
1273562367758,89.6640
1273562427758,90.0521
1273562487758,89.6299
1273562547758,89.9463
1273562607758,89.7263
1273562667758,90.1731
1273562727758,89.8039
1273562787758,89.3738
1273562847758,89.3325
1273562907758,89.5555
1273562967758,89.7997
1273563027758,89.8603
1273563087758,89.7723
1273563147758,89.6316
1273563207758,89.7208
1273563267758,89.5720
1273563327758,89.5966
1273563387758,89.6221
1273563447758,89.8535
1273563507758,89.6957
1273563567758,89.3785
1273563627758,89.8738
1273563687758,89.7478
1273563747758,90.2994
1273563807758,89.6591
1273563867758,89.9145
1273563927758,90.1294
1273563987758,90.1593
1273564047758,89.7534
1273564107758,90.1909
1273564167758,89.8588
1273564227758,90.1627
1273564287758,89.6517
1273564347758,89.8178
1273564407758,89.3363
1273564467758,89.5678
1273564527758,89.4849
1273564587758,90.0337
1273564647758,89.6063
1273564707758,89.4288
1273564767758,89.7135
1273564827766,89.7863
1273564887766,89.0986
1273564947766,89.4162
1273565007767,89.7392
1273565067767,89.7918
1273565127767,89.5375
1273565187767,89.6531
1273565247767,89.7770
1273565307767,89.5660
1273565367767,89.3604
1273565427766,88.9840
1273565487766,89.5119
1273565547766,89.4819
1273565607766,89.4803
1273565667766,89.4762
1273565727766,89.6262
1273565787766,89.8227
1273565847766,89.3342
1273565907766,89.2579
1273565967766,89.2392
1273566027767,89.5324
1273566087766,89.7279
1273566147766,89.7596
1273566207766,89.5331
1273566267766,89.6426
1273566327766,89.1333
1273566387767,89.6575
1273566447767,89.9399
1273566507767,89.8449
1273566567767,89.5316
1273566627767,90.0468
1273566687767,89.7199
1273566747766,89.9154
1273566807766,89.7401
1273566867766,89.3360
1273566927766,89.8020
1273566987766,89.1340
1273567047766,89.8825
1273567107766,89.6439
1273567167766,89.5330
1273567227766,89.7568
1273567287766,89.6015
1273567347766,89.4714
1273567407766,89.5752
1273567467766,89.6594
1273567527766,89.8269
1273567587766,89.6510
1273567647766,89.7114
1273567707767,89.6949
1273567767767,90.1402
1273567827767,89.5680
1273567887767,89.6847
1273567947767,89.3964
1273568007767,89.5192
1273568067767,89.3100
1273568127766,89.7024
1273568187766,89.3917
1273568247766,89.2618
1273568307766,89.3910
1273568367766,89.3814
1273568427775,89.7861
1273568487775,89.7866
1273568547775,88.9994
1273568607775,88.9964
1273568667775,89.5541
1273568727775,89.6306
1273568787775,89.6994
1273568847775,89.3108
1273568907775,89.3719
1273568967775,89.2456
1273569027775,89.3457
1273569087775,89.6441
1273569147775,89.4669
1273569207775,89.4558
1273569267775,89.9649
1273569327775,89.5174
1273569387775,89.8638
1273569447775,89.4004
1273569507775,88.9500
1273569567775,89.3351
1273569627775,89.4750
1273569687775,89.0190
1273569747775,89.0499
1273569807775,88.8870
1273569867775,89.5949
1273569927775,89.2532
1273569987775,89.3096
1273570047775,89.1180
1273570107775,89.1865
1273570167775,89.1878
1273570227775,89.4672
1273570287775,89.8389
1273570347775,88.8138
1273570407775,89.1046
1273570467775,89.1187
1273570527775,89.1870
1273570587775,88.9787
1273570647775,88.7081
1273570707775,89.1815
1273570767775,89.7375
1273570827775,88.9397
1273570887775,89.5941
1273570947775,89.6428
1273571007775,89.5067
1273571067775,89.2460
1273571127775,89.2739
1273571187775,89.5015
1273571247775,89.6176
1273571307775,89.2916
1273571367775,89.4925
1273571427775,89.2197
1273571487775,89.7552
1273571547775,89.1151
1273571607775,88.9646
1273571667775,89.0664
1273571727775,90.0884
1273571787775,89.0960
1273571847775,89.4129
1273571907775,88.5944
1273571967775,89.1075
1273572027784,89.4599
1273572087784,89.2447
1273572147784,89.1116
1273572207784,88.8074
1273572267784,89.0958
1273572327784,89.0974
1273572387784,88.5917
1273572447784,88.6566
1273572507784,89.5179
1273572567784,89.2490
1273572627784,89.0340
1273572687784,89.1571
1273572747784,89.1886
1273572807784,89.6794
1273572867784,89.0307
1273572927784,88.9901
1273572987784,88.7094
1273573047784,89.0863
1273573107784,89.2060
1273573167784,89.0197
1273573227784,89.6559
1273573287784,89.5252
1273573347784,89.0632
1273573407784,89.3413
1273573467784,89.2108
1273573527784,88.9126
1273573587784,89.6687
1273573647784,88.8202
1273573707784,89.5960
1273573767784,89.6567
1273573827784,88.8375
1273573887784,89.0502
1273573947784,88.9934
1273574007784,89.4189
1273574067784,89.3463
1273574127784,89.0315
1273574187784,88.9585
1273574247784,89.2658
1273574307784,89.0987
1273574367784,89.0089
1273574427784,89.1262
1273574487784,88.6788
1273574547784,88.9761
1273574607784,89.0545
1273574667784,89.2625
1273574727784,88.9813
1273574787784,89.3173
1273574847784,89.2863
1273574907784,88.8860
1273574967784,89.4403
1273575027784,89.2008
1273575087784,89.4139
1273575147784,89.3618
1273575207784,88.7157
1273575267784,88.9534
1273575327784,89.3089
1273575387784,89.2945
1273575447784,88.5389
1273575507784,89.3592
1273575567784,89.1928
1273575627793,89.1911
1273575687793,89.3562
1273575747793,89.7409
1273575807793,88.9097
1273575867793,89.0339
1273575927793,88.7869
1273575987793,88.8788
1273576047793,89.4814
1273576107793,89.0817
1273576167793,88.7694
1273576227793,89.5376
1273576287793,89.1543
1273576347793,89.0380
1273576407793,89.1046
1273576467793,88.8752
1273576527793,89.4259
1273576587793,89.2166
1273576647793,89.0724
1273576707793,88.7033
1273576767793,89.1355
1273576827793,89.0467
1273576887793,89.3675
1273576947793,89.1324
1273577007793,89.1170
1273577067793,89.1168
1273577127793,89.1717
1273577187793,89.2910
1273577247793,89.0490
1273577307793,89.0845
1273577367793,89.0550
1273577427793,88.7139
1273577487793,88.7559
1273577547793,88.6157
1273577607793,88.9988
1273577667793,89.4023
1273577727793,89.4464
1273577787793,89.1202
1273577847793,88.9208
1273577907793,88.7337
1273577967793,89.1299
1273578027793,89.0163
1273578087793,89.0854
1273578147793,89.2678
1273578207793,89.3426
1273578267793,88.7689
1273578327793,89.7219
1273578387793,89.0610
1273578447793,88.9786
1273578507793,89.0698
1273578567793,89.1414
1273578627793,89.1804
1273578687793,89.0424
1273578747793,88.9394
1273578807793,89.0615
1273578867793,89.5217
1273578927793,89.4961
1273578987793,89.1064
1273579047793,89.4071
1273579107793,89.0066
1273579167793,89.1203
1273579227802,88.7821
1273579287802,89.7094
1273579347802,89.3525
1273579407802,89.1993
1273579467802,89.2617
1273579527802,88.8970
1273579587802,89.3471
1273579647802,89.2675
1273579707802,89.3267
1273579767802,89.7744
1273579827802,89.4631
1273579887802,89.5800
1273579947802,88.9104
1273580007802,89.0451
1273580067802,89.1386
1273580127802,89.5457
1273580187802,89.4419
1273580247802,89.2554
1273580307802,89.7008
1273580367802,89.3886
1273580427802,89.2381
1273580487802,89.3999
1273580547802,89.1704
1273580607802,89.2691
1273580667802,89.3801
1273580727802,89.7096
1273580787802,89.4512
1273580847802,89.1677
1273580907802,89.5311
1273580967802,90.1989
1273581027802,89.4032
1273581087802,89.0607
1273581147802,89.4273
1273581207802,89.6904
1273581267802,89.2537
1273581327802,88.8412
1273581387802,89.2623
1273581447802,89.6078
1273581507802,89.9242
1273581567802,89.3032
1273581627802,89.4886
1273581687802,89.5352
1273581747802,89.9722
1273581807802,89.6394
1273581867802,89.1827
1273581927802,89.4629
1273581987802,89.6005
1273582047802,89.9265
1273582107802,89.5806
1273582167802,90.0332
1273582227802,89.6304
1273582287802,89.8018
1273582347802,89.7953
1273582407802,89.3885
1273582467802,89.3702
1273582527802,89.9315
1273582587802,89.8130
1273582647802,89.9095
1273582707802,89.4260
1273582767802,89.3667
1273582827810,89.4276
1273582887810,89.3362
1273582947810,89.9286
1273583007810,89.6461
1273583067810,89.2011
1273583127810,89.4534
1273583187810,89.6272
1273583247810,89.1120
1273583307810,89.4584
1273583367810,89.5114
1273583427810,89.3034
1273583487810,89.5735
1273583547810,89.2530
1273583607810,89.3456
1273583667810,89.3348
1273583727810,89.3732
1273583787810,89.0124
1273583847810,89.0731
1273583907810,89.5689
1273583967810,89.1737
1273584027810,89.4117
1273584087810,89.4368
1273584147810,89.3115
1273584207810,88.9246
1273584267810,89.3790
1273584327810,88.7624
1273584387810,89.2335
1273584447810,89.6689
1273584507810,89.0467
1273584567810,89.2189
1273584627810,89.1842
1273584687810,88.8846
1273584747810,89.0599
1273584807810,89.3203
1273584867810,89.0800
1273584927810,89.8407
1273584987810,89.0095
1273585047810,88.7308
1273585107810,89.6657
1273585167810,88.9019
1273585227810,89.1098
1273585287810,88.7548
1273585347810,88.6359
1273585407810,89.2597
1273585467810,89.0219
1273585527810,88.6920
1273585587810,88.8092
1273585647810,89.0377
1273585707810,89.4166
1273585767810,89.0296
1273585827810,89.1222
1273585887810,89.0478
1273585947810,89.3613
1273586007810,89.0147
1273586067810,89.1313
1273586127810,89.0814
1273586187810,89.0196
1273586247810,88.7393
1273586307810,88.8213
1273586367810,88.9133
1273586427819,88.7863
1273586487819,89.0424
1273586547819,89.2906
1273586607819,89.1255
1273586667819,88.6944
1273586727819,88.9284
1273586787819,88.4094
1273586847819,88.9063
1273586907819,88.7137
1273586967819,88.7235
1273587027819,88.7521
1273587087819,88.9421
1273587147819,88.8763
1273587207819,88.8970
1273587267819,88.9510
1273587327819,89.0981
1273587387819,88.7274
1273587447819,88.6072
1273587507819,88.8171
1273587567819,88.9763
1273587627819,88.7840
1273587687819,89.6835
1273587747819,88.6536
1273587807819,89.7776
1273587867819,88.9207
1273587927819,88.9210
1273587987819,88.8394
1273588047819,88.7863
1273588107819,88.7533
1273588167819,88.7205
1273588227819,89.0908
1273588287819,88.9986
1273588347819,88.3757
1273588407819,88.9532
1273588467819,89.4043
1273588527819,89.1878
1273588587819,88.3774
1273588647819,88.9189
1273588707819,89.1461
1273588767819,88.6160
1273588827819,88.4348
1273588887819,88.9741
1273588947819,88.9471
1273589007819,89.0014
1273589067819,88.9257
1273589127819,88.4794
1273589187819,88.8491
1273589247819,88.6758
1273589307819,89.0899
1273589367819,88.5153
1273589427819,88.9572
1273589487819,89.1257
1273589547819,88.8744
1273589607819,88.8349
1273589667819,88.9268
1273589727819,88.8452
1273589787819,89.1960
1273589847819,89.1278
1273589907819,88.5685
1273589967819,88.6459
1273590027827,88.4657
1273590087827,88.8463
1273596507841,88.4425
1273596567841,88.2523
1273596627841,88.5668
1273596687841,87.9411
1273596747841,88.5806
1273596807841,88.4545
1273596867841,73.8025
1273596987841,88.5000
1273597047841,87.8372
1273597107841,88.2789
1273597167841,88.3059
1273597467843,87.6368
1273597527843,88.4457
1273597587843,88.3063
1273597647843,88.2612
1273597707843,87.8395
1273597767843,88.2951
1273597827843,88.5309
1273597887843,88.5889
1273597947843,88.6315
1273598007843,88.3343
1273598067843,88.1974
1273598127843,88.3962
1273598187843,88.6809
1273598247843,88.6484
1273598307843,88.3850
1273598367843,88.5518
1273598427843,88.4099
1273598487843,88.2975
1273598547843,88.1185
1273598607843,88.6825
1273598667843,88.1830
1273598727843,88.9208
1273598787843,88.4947
1273598847843,87.6166
1273598907843,88.3227
1273598967843,88.2674
1273599027843,88.3289
1273599087843,88.2135
1273599147843,88.0353
1273599207843,87.9586
1273599267843,88.4376
1273599327843,88.5970
1273599387843,88.4154
1273599687843,88.5176
1273599747843,88.1758
1273599807843,88.4927
1273599867843,87.8000
1273599927843,88.5567
1273599987843,88.3709
1273600047843,87.8706
1273600107843,88.2019
1273600167843,88.2198
1273601427850,88.9283
1273601547850,88.1776
1273601607850,88.5202
1273601667850,87.5922
1273601727850,87.8931
1273601787850,88.5506
1273602027850,88.7427
1273602087850,88.8658
1273602147850,87.7227
1273605927236,87.8726
1273605987236,87.4195
1273606047236,87.2724
1273606107236,87.2730
1273606167236,87.5490
1273606407236,87.0657
1273606467236,87.7677
1273606527236,87.3379
1273607427236,87.8895
1273607487236,87.5962
1273607547236,88.0025
1273607607236,87.6618
1273607667236,87.4635
1273607727236,87.6027
1273607787236,87.3708
1273607847236,87.4650
1273607907236,87.7563
1273607967236,87.0726
1273608027239,88.3721
1273608087239,87.7174
1273608147239,87.2432
1273608207239,87.7599
1273608267239,87.7796
1273608327239,87.5658
1273608387239,87.7533
1273608447239,87.5307
1273608507239,88.0714
1273608567239,87.6562
1273608627239,87.6055
1273608687239,87.6423
1273608747239,87.6307
1273608807239,88.3482
1273608867239,88.1783
1273608927239,87.4166
1273608987239,87.6149
1273609047239,87.7088
1273609107239,87.8813
1273609167239,87.2740
1273609227239,87.9389
1273609287239,87.8818
1273609347239,87.7487
1273609407239,87.7002
1273609467239,87.5883
1273609527239,87.6064
1273609587239,87.5525
1273609647239,87.8839
1273609707239,86.8989
1273609767239,87.5211
1273609827239,87.4263
1273609887239,87.4526
1273609947239,87.5925
1273610007239,87.1446
1273610067239,87.5664
1273610127239,87.3752
1273610187239,87.6333
1273610247239,87.9620
1273610307239,87.6497
1273610367239,87.6219
1273610427239,87.6900
1273610487239,87.3612
1273610547239,87.4738
1273610607239,87.3441
1273610667239,87.8006
1273610727239,87.7196
1273610787239,87.4237
1273610847239,87.8603
1273610907239,87.9302
1273610967239,87.3178
1273611027239,88.2514
1273611087239,87.5413
1273611147239,87.1853
1273611207239,87.3518
1273611267239,87.5388
1273611327239,87.3690
1273611387239,87.6064
1273611447239,87.6746
1273611507239,87.4147
1273611567239,87.3607
1273611627246,87.6917
1273611687246,87.5315
1273611747246,87.5634
1273611807246,87.8425
1273611867246,87.5318
1273611927246,87.4599
1273611987246,87.0154
1273612047246,87.3877
1273612107246,87.5602
1273612167246,87.9181
1273612227246,87.9292
1273612287246,87.3965
1273612347246,87.4118
1273612407246,87.5655
1273612467246,87.7707
1273612527246,86.9838
1273612587246,87.8288
1273612647246,87.4360
1273612707246,87.3151
1273612767246,87.6824
1273612827246,86.9513
1273612887246,87.1346
1273612947246,87.4526
1273613007246,87.3835
1273613067246,87.4379
1273613127246,87.2201
1273613187246,87.6407
1273613247246,87.2131
1273613307246,87.0341
1273613367246,87.1592
1273613427246,86.8847
1273613487246,86.9423
1273613547246,87.2044
1273613607246,87.4965
1273613667246,87.3911
1273613727246,87.6165
1273613787246,87.3191
1273613847246,87.0966
1273613907246,87.1942
1273613967246,87.1608
1273614027246,87.5177
1273614087246,87.6589
1273614147246,87.5049
1273614207246,87.1769
1273614267246,87.3510
1273614327246,87.3853
1273614387246,87.4030
1273614447246,87.3372